Wind_Speed
39 42 41 43 42 42 42 42 41 39 36 38 38 34 37 37 35 35 34 32 34 36 36 40 42 43 42 40 39 41 43 42 42 40 43 41 40 37 39 37 31 36 36
39 39 41 43 43 43 43 43 43 44 41 42 42 39 39 38 39 39 39 38 38 41 41 41 44 43 43 43 44 44 46 39 42 37 42 39 36 39 42 40 34 37 40
41 41 40 42 44 45 44 42 44 44 45 44 41 42 42 41 45 44 42 42 45 45 45 42 43 43 45 47 45 46 46 41 39 37 38 35 39 39 38 36 37 38 40
45 43 42 42 43 44 42 41 41 43 44 46 45 45 45 44 45 47 47 46 46 43 43 45 41 40 45 45 48 49 42 37 37 36 32 35 34 34 36 37 37 40 40
50 49 46 44 43 44 42 40 40 39 40 41 43 43 42 44 44 46 47 48 48 44 42 39 36 35 38 40 43 43 35 38 40 35 35 39 38 38 39 41 39 40 33
57 53 51 50 48 47 45 43 42 41 39 39 40 40 39 41 43 42 44 44 43 43 39 38 35 31 35 39 39 38 36 37 36 33 34 37 37 39 40 39 36 33 24
61 59 56 55 53 51 50 48 45 42 41 40 37 37 38 37 38 39 39 38 40 38 35 35 34 35 33 33 33 33 33 36 35 36 37 38 38 38 37 32 29 22 19
61 63 62 60 59 57 55 53 50 48 45 45 41 40 40 39 39 39 39 38 39 39 37 37 38 38 38 39 39 37 38 39 39 39 38 39 38 36 31 26 22 20 16
59 62 66 66 64 62 61 58 57 54 52 50 49 47 44 43 43 42 42 42 42 42 42 40 42 41 41 42 42 38 41 39 39 39 39 38 35 31 23 21 20 17 14
62 62 63 67 68 67 66 64 62 61 59 57 55 54 51 48 46 46 46 46 45 44 43 42 44 43 42 43 39 39 40 39 40 40 39 37 32 27 23 20 19 16 13
67 66 64 64 67 69 68 68 67 65 64 62 60 59 58 55 51 49 50 47 46 44 44 43 43 42 42 41 40 40 41 42 42 39 37 31 28 22 21 20 18 15 14
71 71 68 66 65 65 65 66 66 66 66 64 63 63 60 57 54 49 50 49 46 45 45 43 43 41 41 42 41 42 42 40 38 34 29 28 24 21 20 20 19 16 15
71 72 71 70 69 67 66 65 64 62 61 59 59 58 58 58 56 52 51 50 49 48 47 44 43 43 42 42 41 41 39 36 35 31 28 26 23 22 22 22 20 19 17
68 70 73 73 72 71 70 68 67 64 62 60 58 56 56 55 54 53 51 50 49 50 49 45 44 43 42 41 38 38 37 35 34 31 28 27 25 24 25 25 21 20 19
64 66 70 73 74 72 72 71 69 67 65 63 62 60 56 55 54 53 52 51 49 49 49 48 46 44 42 39 38 37 36 34 34 31 30 29 27 27 27 27 24 22 22
58 63 65 68 71 73 73 72 70 68 67 66 64 62 59 57 55 54 53 53 51 50 50 48 46 43 41 38 38 38 38 36 35 33 31 31 30 30 30 28 26 25 24
51 54 60 65 67 68 69 68 68 68 68 66 65 63 60 58 56 55 54 53 52 52 50 46 44 42 41 40 40 40 39 37 37 34 32 33 33 33 33 31 29 27 26
43 48 53 59 64 66 68 68 69 69 65 64 63 61 61 60 58 56 54 53 51 50 47 46 44 43 43 42 42 41 40 38 37 36 34 36 35 36 36 33 31 30 28
38 41 45 50 55 59 63 66 67 67 67 67 65 64 61 60 58 56 55 53 51 49 48 47 46 45 45 44 43 42 41 39 39 38 36 37 37 39 38 36 33 32 31
35 37 39 43 47 51 54 57 61 64 67 68 68 67 65 63 60 58 56 54 53 51 50 49 48 47 46 45 43 43 42 41 41 40 40 40 40 41 39 37 36 33 34
33 36 38 40 43 44 47 51 54 57 61 64 65 67 67 65 63 62 60 56 54 52 52 51 51 49 47 46 44 45 44 43 44 43 44 44 43 43 41 40 39 38 37
25 32 37 38 41 42 44 46 49 52 55 57 60 63 66 66 65 63 63 61 59 57 55 53 52 51 48 47 46 46 45 45 47 47 47 47 46 45 43 43 42 40 40
22 23 31 37 40 41 42 43 44 46 49 52 55 58 61 63 65 65 64 63 60 58 57 55 52 51 50 49 47 48 47 48 49 50 50 49 49 47 47 45 44 43 43
23 22 22 30 35 38 41 42 43 44 46 47 51 54 57 60 62 64 66 65 63 61 60 58 55 54 53 52 51 50 50 52 52 53 53 52 52 49 49 48 48 48 47
28 26 24 22 26 34 37 39 41 42 44 45 47 49 51 55 58 61 64 67 67 66 63 61 59 57 57 56 54 53 54 56 55 57 57 55 54 52 51 50 50 51 51
32 31 29 28 26 26 32 37 39 40 42 43 45 46 48 50 52 55 59 63 66 67 66 65 63 62 61 59 58 57 58 58 60 60 62 58 56 56 54 53 53 53 52
Wind_Direction
242 243 242 247 249 254 258 260 264 266 267 271 272 271 275 273 276 284 284 283 280 287 290 294 293 294 303 304 309 307 310 313 314 316 314 317 317 322 321 326 327 329 326
240 241 242 244 248 254 257 256 259 261 263 269 270 268 271 272 275 280 285 287 291 288 289 288 292 292 297 305 303 306 307 315 315 314 314 314 320 322 322 326 326 324 323
241 240 241 243 247 250 253 254 254 257 259 262 270 270 268 271 278 278 282 283 287 286 290 288 287 290 295 299 303 306 309 312 312 311 315 315 319 318 319 319 318 322 319
239 241 240 240 243 245 247 249 250 253 257 260 263 266 267 269 273 274 278 279 286 288 289 288 292 294 293 298 300 301 306 310 307 310 313 316 316 319 318 315 318 317 317
238 238 239 239 240 241 240 242 244 247 251 255 257 260 263 263 267 269 271 275 281 286 289 291 292 295 298 297 297 299 306 307 307 309 312 314 313 316 313 311 315 312 314
239 239 239 238 239 241 241 241 241 241 244 247 252 256 258 263 265 267 269 272 276 279 285 287 292 295 295 294 297 298 302 302 306 312 314 318 316 315 310 311 308 311 309
240 241 242 240 240 241 240 242 243 243 244 246 250 255 258 260 263 266 268 271 274 276 279 284 288 289 289 291 292 296 298 301 306 310 312 310 312 310 308 306 306 303 298
240 240 241 242 241 242 242 244 246 246 246 245 249 254 257 260 263 266 267 269 272 277 280 281 282 284 290 292 295 299 302 299 301 302 305 307 306 304 305 300 301 296 283
242 242 241 242 243 244 246 246 248 250 248 248 251 254 257 259 262 265 266 268 271 274 276 279 280 284 288 289 293 297 297 298 297 298 300 303 299 299 292 295 291 275 268
243 243 243 243 242 244 245 247 249 251 252 252 253 256 259 259 260 264 265 267 269 273 276 276 279 281 284 287 291 292 293 295 296 296 297 298 291 291 289 283 278 266 245
242 243 244 244 244 245 246 247 249 251 253 255 255 256 259 260 260 262 264 265 267 270 273 275 277 279 281 284 287 289 292 293 294 293 294 287 286 278 278 270 257 252 238
245 243 244 245 246 246 247 249 250 252 254 255 255 256 258 260 260 260 261 262 264 268 271 270 272 277 280 282 284 288 290 291 290 290 285 280 280 270 263 255 247 235 234
251 248 246 246 247 248 248 249 250 251 252 254 254 256 257 259 260 259 259 261 264 265 267 268 272 276 279 280 283 286 287 285 286 285 277 274 268 261 256 244 240 231 236
253 252 250 248 248 248 249 250 251 252 253 254 254 255 256 258 260 260 261 263 263 264 265 268 273 276 277 280 281 282 282 281 282 279 272 268 259 251 251 238 234 232 237
253 251 250 250 250 250 251 252 253 253 253 253 254 255 255 256 257 258 259 261 262 265 265 268 271 273 275 275 277 277 277 276 277 275 269 262 253 245 244 236 231 233 237
250 248 248 248 250 250 252 252 253 253 253 252 252 253 253 254 255 255 257 258 259 261 263 265 267 268 269 272 273 273 273 272 272 270 267 256 248 240 239 234 233 235 238
246 245 245 245 246 247 248 249 249 250 251 251 252 253 253 252 252 253 254 255 257 258 260 261 262 265 266 268 268 270 270 268 269 265 262 250 244 237 236 235 233 235 239
251 248 246 244 244 244 246 247 248 249 249 249 249 249 248 249 250 251 253 254 255 256 256 257 260 261 264 265 265 266 265 265 262 257 255 246 242 237 235 236 234 236 239
253 249 247 246 246 246 246 247 248 249 248 248 247 247 247 248 248 249 251 251 252 253 254 254 258 259 260 262 262 262 261 260 253 250 249 243 241 237 237 238 236 238 240
250 249 249 248 247 246 246 247 248 248 248 248 248 247 246 246 245 246 248 248 250 251 252 253 256 256 257 259 259 259 257 255 248 245 245 241 241 239 237 239 238 240 242
255 250 249 248 249 250 249 247 247 247 247 247 247 247 247 245 245 243 244 245 246 248 248 251 253 255 254 256 256 257 254 252 244 243 242 240 241 239 238 239 240 240 244
265 252 247 246 248 246 247 248 247 247 247 247 247 246 245 245 244 242 242 243 244 244 246 248 250 253 253 252 253 254 252 251 240 241 240 240 240 239 240 241 243 243 247
286 269 252 246 245 246 245 245 246 247 247 246 246 246 245 243 242 241 240 239 240 242 244 246 247 250 250 249 252 249 247 244 240 239 239 239 240 239 240 242 245 248 250
286 281 268 252 246 245 245 244 244 245 245 246 245 244 243 243 242 241 240 239 238 239 240 241 243 245 247 247 249 246 243 240 239 239 239 239 239 239 240 241 243 246 249
282 281 278 267 256 248 245 245 245 246 246 246 245 243 243 244 243 241 238 237 236 236 237 239 240 241 243 243 245 242 239 237 237 237 237 238 239 240 241 243 244 246 249
278 277 274 270 265 255 249 247 247 246 246 246 247 245 243 242 242 241 241 238 236 235 235 237 237 237 239 239 240 239 237 235 235 235 234 236 237 239 241 243 245 247 249
Height
10965 10968 10969 10970 10973 10974 10973 10974 10974 10976 10976 10978 10980 10981 10980 10982 10984 10983 10983 10986 10986 10984 10984 10983 10981 10980 10979 10978 10977 10975 10975 10974 10971 10967 10966 10963 10962 10959 10957 10952 10950 10946 10943
10960 10962 10963 10966 10968 10968 10968 10970 10971 10972 10973 10973 10975 10977 10977 10976 10978 10978 10978 10978 10979 10980 10981 10980 10977 10976 10975 10974 10973 10972 10971 10967 10965 10963 10961 10959 10955 10952 10950 10947 10945 10942 10939
10954 10956 10957 10959 10961 10963 10964 10964 10966 10967 10968 10969 10969 10971 10973 10973 10972 10973 10974 10974 10974 10976 10974 10975 10975 10971 10969 10969 10967 10965 10964 10963 10961 10960 10956 10954 10952 10949 10946 10944 10943 10938 10937
10948 10950 10951 10952 10954 10957 10959 10959 10960 10961 10963 10963 10964 10966 10968 10969 10968 10967 10968 10969 10969 10968 10968 10967 10967 10967 10965 10963 10963 10963 10962 10959 10958 10956 10952 10950 10949 10945 10943 10942 10939 10936 10935
10939 10942 10944 10945 10947 10950 10952 10954 10955 10956 10956 10958 10959 10960 10961 10963 10964 10964 10963 10963 10964 10962 10962 10962 10961 10960 10960 10960 10960 10960 10958 10955 10953 10950 10947 10945 10944 10941 10940 10939 10935 10933 10931
10931 10934 10936 10938 10940 10942 10944 10947 10949 10950 10951 10953 10953 10954 10955 10956 10957 10958 10958 10958 10959 10958 10957 10957 10956 10955 10955 10957 10956 10956 10953 10952 10949 10946 10944 10940 10939 10937 10937 10933 10932 10930 10928
10922 10925 10928 10931 10933 10934 10937 10939 10942 10944 10946 10947 10948 10949 10950 10950 10950 10951 10952 10953 10953 10954 10954 10952 10951 10952 10953 10952 10952 10950 10950 10947 10944 10941 10940 10938 10936 10935 10933 10931 10929 10927 10927
10911 10915 10918 10921 10924 10926 10928 10931 10934 10936 10939 10940 10942 10943 10945 10945 10945 10945 10946 10946 10947 10947 10947 10947 10947 10947 10946 10946 10946 10944 10943 10943 10941 10939 10937 10935 10933 10931 10929 10928 10926 10926 10925
10900 10904 10907 10911 10914 10917 10919 10922 10925 10928 10931 10933 10934 10936 10938 10939 10939 10939 10940 10940 10941 10941 10941 10941 10941 10941 10940 10940 10940 10939 10939 10938 10936 10935 10933 10931 10929 10927 10926 10925 10924 10923 10923
10889 10892 10895 10899 10902 10906 10909 10912 10915 10918 10921 10924 10926 10928 10930 10931 10932 10933 10933 10934 10934 10935 10935 10935 10934 10934 10935 10935 10934 10935 10934 10933 10931 10929 10927 10925 10924 10923 10923 10922 10921 10921 10921
10877 10881 10884 10887 10891 10895 10899 10902 10905 10908 10911 10914 10917 10919 10921 10923 10925 10926 10926 10927 10927 10928 10928 10928 10928 10928 10928 10928 10928 10928 10928 10926 10925 10923 10922 10920 10920 10919 10918 10918 10918 10918 10919
10864 10868 10872 10876 10879 10883 10887 10891 10894 10897 10900 10903 10906 10908 10911 10912 10915 10917 10918 10919 10920 10921 10921 10922 10922 10922 10921 10921 10921 10921 10920 10919 10918 10918 10916 10915 10915 10915 10915 10915 10915 10916 10917
10850 10855 10859 10863 10867 10871 10875 10878 10882 10886 10889 10892 10895 10897 10900 10901 10904 10907 10909 10910 10911 10912 10913 10914 10914 10914 10914 10914 10913 10913 10913 10912 10912 10912 10911 10911 10911 10911 10911 10911 10912 10913 10913
10836 10840 10845 10849 10853 10858 10861 10865 10870 10874 10878 10881 10884 10887 10889 10892 10894 10897 10899 10900 10902 10902 10903 10905 10906 10906 10906 10906 10905 10905 10905 10905 10906 10906 10906 10906 10906 10907 10907 10908 10908 10909 10910
10821 10825 10828 10834 10838 10843 10847 10851 10856 10860 10865 10868 10871 10875 10878 10881 10884 10886 10889 10890 10892 10893 10894 10896 10898 10898 10898 10898 10898 10898 10899 10899 10900 10900 10901 10901 10901 10902 10903 10904 10904 10905 10906
10804 10808 10813 10817 10822 10827 10831 10836 10841 10845 10851 10854 10858 10862 10865 10869 10872 10875 10878 10880 10882 10883 10885 10886 10888 10889 10889 10890 10890 10890 10891 10892 10893 10893 10895 10895 10896 10897 10898 10899 10900 10901 10902
10788 10792 10796 10801 10806 10810 10815 10820 10824 10828 10834 10839 10844 10849 10852 10856 10859 10863 10866 10869 10872 10873 10875 10876 10878 10880 10881 10882 10882 10883 10883 10884 10885 10886 10888 10889 10889 10891 10892 10893 10895 10896 10897
10777 10780 10783 10787 10791 10795 10800 10804 10809 10815 10821 10825 10829 10834 10837 10842 10847 10850 10853 10857 10860 10862 10864 10866 10868 10870 10871 10872 10873 10874 10875 10876 10877 10878 10880 10882 10883 10885 10886 10888 10889 10890 10892
10767 10769 10772 10776 10779 10783 10787 10791 10796 10802 10806 10809 10814 10818 10824 10829 10834 10837 10840 10844 10848 10851 10853 10855 10858 10859 10861 10862 10863 10865 10865 10867 10868 10870 10872 10875 10877 10878 10880 10882 10883 10884 10886
10758 10760 10762 10765 10767 10770 10774 10778 10782 10787 10791 10795 10799 10804 10811 10816 10821 10824 10828 10832 10835 10839 10841 10844 10846 10848 10850 10852 10853 10855 10855 10857 10859 10861 10863 10867 10869 10872 10874 10875 10877 10879 10880
10750 10751 10753 10755 10756 10760 10763 10766 10769 10772 10775 10779 10785 10790 10796 10801 10806 10810 10814 10819 10823 10826 10829 10832 10834 10836 10839 10841 10842 10844 10845 10848 10849 10852 10855 10858 10861 10864 10867 10868 10870 10872 10873
10743 10742 10743 10745 10746 10748 10750 10753 10756 10758 10762 10765 10769 10774 10779 10784 10790 10795 10800 10805 10809 10812 10816 10819 10822 10824 10827 10829 10831 10833 10835 10837 10840 10842 10845 10849 10852 10856 10858 10860 10862 10864 10866
10737 10734 10734 10735 10736 10737 10740 10742 10744 10747 10749 10752 10755 10759 10763 10768 10773 10778 10783 10789 10794 10799 10804 10807 10811 10813 10815 10817 10820 10822 10824 10827 10829 10833 10836 10839 10842 10846 10849 10851 10854 10856 10858
10732 10729 10727 10726 10727 10728 10729 10731 10733 10735 10737 10740 10742 10746 10748 10752 10757 10763 10768 10774 10779 10784 10788 10792 10795 10799 10802 10805 10807 10810 10813 10815 10819 10822 10826 10829 10832 10836 10839 10842 10844 10846 10848
10726 10724 10722 10720 10719 10719 10720 10721 10723 10724 10726 10728 10731 10734 10737 10739 10743 10747 10751 10756 10762 10767 10772 10776 10780 10784 10786 10790 10792 10796 10800 10803 10807 10811 10815 10819 10822 10826 10829 10832 10834 10835 10837
10718 10717 10716 10714 10713 10712 10711 10712 10713 10715 10716 10718 10719 10721 10724 10727 10731 10736 10739 10742 10746 10750 10756 10760 10763 10767 10770 10774 10777 10781 10786 10790 10794 10798 10803 10807 10811 10815 10818 10820 10822 10824 10826